NKS378 MDSD-KFLL

Flight info

Callsign NKS378
Flight time N/A
Altitude 34000
Route MALVN2J MALVN DCT RUMFO DCT ZQA OLAHS3
Aircraft A20N/M-SDE2E3FGHIRWXY/LB1

Departure

Time 2026-05-03 20:56
Airport Las Américas International Airport (MDSD)

Arrival

Time N/A
Airport Fort Lauderdale Hollywood International Airport (KFLL)
Time Latitude Longitude Altitude Speed Heading
2026-05-03 20:33 18.43114 -69.67557 68 ft 0 kts 290°
2026-05-03 20:45 18.43111 -69.67549 67 ft 6 kts 290°
2026-05-03 20:45 18.43098 -69.67507 60 ft 6 kts 289°
2026-05-03 20:45 18.43080 -69.67461 56 ft 7 kts 301°
2026-05-03 20:45 18.43056 -69.67437 55 ft 0 kts 338°
2026-05-03 20:51 18.43058 -69.67438 62 ft 2 kts 337°
2026-05-03 20:51 18.43107 -69.67456 59 ft 11 kts 340°
2026-05-03 20:51 18.43204 -69.67492 60 ft 18 kts 340°
2026-05-03 20:51 18.43327 -69.67534 64 ft 16 kts
2026-05-03 20:52 18.43425 -69.67516 64 ft 14 kts 342°
2026-05-03 20:52 18.43512 -69.67553 68 ft 13 kts 338°
2026-05-03 20:52 18.43599 -69.67589 65 ft 14 kts 338°
2026-05-03 20:52 18.43693 -69.67629 68 ft 15 kts 339°
2026-05-03 20:53 18.43794 -69.67669 68 ft 16 kts 339°
2026-05-03 20:53 18.43902 -69.67712 66 ft 17 kts 340°
2026-05-03 20:53 18.44014 -69.67757 68 ft 18 kts 339°
2026-05-03 20:53 18.44116 -69.67776 64 ft 10 kts 50°
2026-05-03 20:54 18.44107 -69.67765 66 ft 0 kts 220°
2026-05-03 20:54 18.44113 -69.67784 63 ft 4 kts 15°
2026-05-03 20:54 18.44132 -69.67757 66 ft 6 kts 57°
2026-05-03 20:55 18.44151 -69.67716 63 ft 8 kts 70°
2026-05-03 20:55 18.44186 -69.67609 62 ft 18 kts 70°
2026-05-03 20:55 18.44133 -69.67515 67 ft 16 kts 158°
2026-05-03 20:55 18.43963 -69.67453 70 ft 53 kts 158°
2026-05-03 20:56 18.43409 -69.67251 65 ft 114 kts 160°
2026-05-03 20:56 18.42503 -69.66921 68 ft 159 kts 159°
2026-05-03 20:56 18.41432 -69.66513 577 ft 154 kts 159°
2026-05-03 20:56 18.40453 -69.66095 1225 ft 154 kts 155°
2026-05-03 20:57 18.39401 -69.65677 1619 ft 170 kts 172°
2026-05-03 20:57 18.38206 -69.65957 2057 ft 188 kts 215°
2026-05-03 20:57 18.37562 -69.67165 2578 ft 199 kts 268°
2026-05-03 20:57 18.38086 -69.68517 3033 ft 210 kts 310°
2026-05-03 20:58 18.38911 -69.69856 3373 ft 229 kts 287°
2026-05-03 20:58 18.38999 -69.71522 3600 ft 241 kts 253°
2026-05-03 20:58 18.38198 -69.73100 3818 ft 250 kts 220°
2026-05-03 20:58 18.36841 -69.74173 4298 ft 253 kts 214°
2026-05-03 20:59 18.35643 -69.75676 4534 ft 276 kts 244°
2026-05-03 20:59 18.35257 -69.77663 5116 ft 283 kts 272°
2026-05-03 20:59 18.35738 -69.79684 5718 ft 288 kts 295°
2026-05-03 20:59 18.36671 -69.81561 6348 ft 291 kts 299°
2026-05-03 21:00 18.37640 -69.83445 6963 ft 294 kts 297°
2026-05-03 21:00 18.37940 -69.84069 7156 ft 294 kts 296°
2026-05-03 21:00 18.39370 -69.87389 8137 ft 299 kts 292°
2026-05-03 21:00 18.40160 -69.89421 8740 ft 302 kts 291°
2026-05-03 21:01 18.40924 -69.91448 9331 ft 304 kts 291°
2026-05-03 21:01 18.41700 -69.93531 9926 ft 306 kts 291°
2026-05-03 21:01 18.42486 -69.95639 10303 ft 317 kts 291°
2026-05-03 21:01 18.43313 -69.97861 10476 ft 334 kts 291°
2026-05-03 21:02 18.44183 -70.00189 10626 ft 350 kts 291°
2026-05-03 21:02 18.45087 -70.02605 11000 ft 358 kts 291°
2026-05-03 21:02 18.45997 -70.05041 11591 ft 358 kts 291°
2026-05-03 21:02 18.46911 -70.07486 12182 ft 359 kts 291°
2026-05-03 21:03 18.47826 -70.09936 12737 ft 360 kts 291°
2026-05-03 21:03 18.48998 -70.12225 13273 ft 362 kts 307°
2026-05-03 21:03 18.50801 -70.14069 13800 ft 364 kts 326°
2026-05-03 21:03 18.53043 -70.15344 14238 ft 368 kts 334°
2026-05-03 21:04 18.55352 -70.16512 14681 ft 370 kts 333°
2026-05-03 21:04 18.57677 -70.17689 15126 ft 372 kts 333°
2026-05-03 21:04 18.60025 -70.18880 15558 ft 375 kts 333°
2026-05-03 21:04 18.62377 -70.20079 15987 ft 377 kts 332°
2026-05-03 21:05 18.64747 -70.21290 16436 ft 379 kts 332°
2026-05-03 21:05 18.67127 -70.22509 16819 ft 382 kts 332°
2026-05-03 21:05 18.69494 -70.23722 17247 ft 384 kts 332°
2026-05-03 21:05 18.71901 -70.24954 17645 ft 387 kts 332°
2026-05-03 21:06 18.74331 -70.26199 18055 ft 389 kts 332°
2026-05-03 21:06 18.76776 -70.27452 18431 ft 392 kts 332°
2026-05-03 21:06 18.79236 -70.28714 18765 ft 395 kts 332°
2026-05-03 21:06 18.81716 -70.29986 19115 ft 397 kts 332°
2026-05-03 21:07 18.84202 -70.31263 19450 ft 399 kts 332°
2026-05-03 21:07 18.86706 -70.32549 19764 ft 402 kts 332°
2026-05-03 21:07 18.89228 -70.33844 20117 ft 404 kts 332°
2026-05-03 21:07 18.91763 -70.35148 20416 ft 407 kts 332°
2026-05-03 21:08 18.94322 -70.36464 20741 ft 409 kts 332°
2026-05-03 21:08 18.96884 -70.37782 21075 ft 411 kts 332°
2026-05-03 21:08 18.98580 -70.38654 21260 ft 413 kts 332°
2026-05-03 21:08 19.01227 -70.40016 21585 ft 416 kts 333°
2026-05-03 21:09 19.03828 -70.41353 21892 ft 418 kts 333°
2026-05-03 21:09 19.06456 -70.42706 22189 ft 421 kts 333°
2026-05-03 21:09 19.09090 -70.44063 22482 ft 423 kts 333°
2026-05-03 21:09 19.11744 -70.45429 22803 ft 425 kts 333°
2026-05-03 21:10 19.14409 -70.46802 23070 ft 427 kts 333°
2026-05-03 21:10 19.16180 -70.47714 23248 ft 429 kts 333°
2026-05-03 21:10 19.18874 -70.49102 23550 ft 431 kts 333°
2026-05-03 21:10 19.21567 -70.50491 23800 ft 432 kts 333°
2026-05-03 21:11 19.25168 -70.52346 24124 ft 435 kts 333°
2026-05-03 21:11 19.27887 -70.53749 24397 ft 435 kts 333°
2026-05-03 21:11 19.30611 -70.55154 24648 ft 437 kts 333°
2026-05-03 21:11 19.33350 -70.56568 24907 ft 438 kts 333°
2026-05-03 21:12 19.35165 -70.57505 25073 ft 439 kts 333°
2026-05-03 21:12 19.37914 -70.58925 25315 ft 440 kts 333°
2026-05-03 21:12 19.40628 -70.60429 25548 ft 441 kts 328°
2026-05-03 21:12 19.43168 -70.62254 25793 ft 442 kts 322°
2026-05-03 21:13 19.45649 -70.64196 26021 ft 444 kts 323°
2026-05-03 21:13 19.48952 -70.66761 26332 ft 445 kts 323°
2026-05-03 21:13 19.50037 -70.67602 26433 ft 446 kts 323°
2026-05-03 21:13 19.52549 -70.69549 26672 ft 447 kts 323°
2026-05-03 21:14 19.55065 -70.71500 26875 ft 449 kts 323°
2026-05-03 21:14 19.57552 -70.73431 27109 ft 450 kts 322°
2026-05-03 21:14 19.60079 -70.75395 27300 ft 451 kts 322°
2026-05-03 21:14 19.62613 -70.77367 27510 ft 453 kts 322°
2026-05-03 21:15 19.65158 -70.79347 27717 ft 454 kts 322°
2026-05-03 21:15 19.67708 -70.81331 27918 ft 456 kts 322°
2026-05-03 21:15 19.70268 -70.83324 28132 ft 457 kts 322°
2026-05-03 21:15 19.72805 -70.85300 28328 ft 458 kts 322°
2026-05-03 21:16 19.75379 -70.87306 28519 ft 460 kts 322°
2026-05-03 21:16 19.77958 -70.89317 28742 ft 461 kts 322°
2026-05-03 21:16 19.80539 -70.91329 28916 ft 462 kts 322°
2026-05-03 21:16 19.83135 -70.93354 29082 ft 464 kts 322°
2026-05-03 21:17 19.85735 -70.95384 29305 ft 464 kts 322°
2026-05-03 21:17 19.88345 -70.97423 29479 ft 465 kts 322°
2026-05-03 21:17 19.90954 -70.99461 29671 ft 467 kts 322°
2026-05-03 21:17 19.93570 -71.01506 29859 ft 468 kts 322°
2026-05-03 21:18 19.96199 -71.03562 30035 ft 469 kts 322°
2026-05-03 21:18 19.98827 -71.05618 30218 ft 469 kts 322°
2026-05-03 21:18 20.01454 -71.07673 30417 ft 469 kts 322°
2026-05-03 21:18 20.04090 -71.09738 30606 ft 470 kts 322°
2026-05-03 21:19 20.06683 -71.11769 30788 ft 470 kts 322°
2026-05-03 21:19 20.09321 -71.13836 30987 ft 470 kts 322°
2026-05-03 21:19 20.11951 -71.15898 31222 ft 469 kts 322°
2026-05-03 21:19 20.14565 -71.17949 31481 ft 467 kts 322°
2026-05-03 21:20 20.17173 -71.19995 31752 ft 466 kts 322°
2026-05-03 21:20 20.19782 -71.22043 31994 ft 464 kts 322°
2026-05-03 21:20 20.22311 -71.24169 32220 ft 461 kts 314°
2026-05-03 21:20 20.24398 -71.26730 32415 ft 457 kts 302°
2026-05-03 21:21 20.25906 -71.29650 32612 ft 454 kts 290°
2026-05-03 21:21 20.26800 -71.32855 32795 ft 452 kts 278°
2026-05-03 21:21 20.27028 -71.36173 32971 ft 450 kts 266°
2026-05-03 21:21 20.26583 -71.39470 33133 ft 450 kts 257°
2026-05-03 21:22 20.26057 -71.42745 33271 ft 449 kts 267°
2026-05-03 21:22 20.26153 -71.46070 33435 ft 448 kts 275°
2026-05-03 21:22 20.26263 -71.49374 33601 ft 447 kts 272°
2026-05-03 21:22 20.26657 -71.52658 33745 ft 447 kts 284°
2026-05-03 21:23 20.27698 -71.55760 33888 ft 447 kts 296°
2026-05-03 21:23 20.29343 -71.58562 33998 ft 448 kts 308°
2026-05-03 21:23 20.33440 -71.63505 33996 ft 447 kts 310°
2026-05-03 21:24 20.37584 -71.68440 33993 ft 447 kts 310°
2026-05-03 21:24 20.41683 -71.73409 33993 ft 447 kts 310°
2026-05-03 21:25 20.45776 -71.78399 33997 ft 446 kts 310°
2026-05-03 21:25 20.49852 -71.83375 33987 ft 445 kts 309°
2026-05-03 21:26 20.53926 -71.88354 33984 ft 445 kts 309°
2026-05-03 21:26 20.57991 -71.93326 33984 ft 444 kts 309°
2026-05-03 21:27 20.62021 -71.98259 33985 ft 444 kts 309°
2026-05-03 21:27 20.66075 -72.03226 33982 ft 444 kts 309°
2026-05-03 21:28 20.70137 -72.08207 33979 ft 444 kts 309°
2026-05-03 21:28 20.74190 -72.13180 33994 ft 445 kts 309°
2026-05-03 21:29 20.78287 -72.18212 33998 ft 452 kts 309°
2026-05-03 21:29 20.82433 -72.23307 34005 ft 457 kts 309°
2026-05-03 21:30 20.86601 -72.28434 34002 ft 462 kts 309°
2026-05-03 21:30 20.90827 -72.33639 34000 ft 465 kts 309°
2026-05-03 21:31 20.95067 -72.38866 34004 ft 466 kts 309°
2026-05-03 21:31 20.99329 -72.44126 34000 ft 468 kts 309°
2026-05-03 21:32 21.03547 -72.49337 34005 ft 468 kts 309°
2026-05-03 21:32 21.07825 -72.54628 34004 ft 468 kts 309°
2026-05-03 21:33 21.12086 -72.59902 34008 ft 468 kts 309°
2026-05-03 21:33 21.16347 -72.65181 34005 ft 468 kts 309°
2026-05-03 21:34 21.20606 -72.70463 34007 ft 468 kts 309°
2026-05-03 21:34 21.24856 -72.75739 34003 ft 468 kts 309°
2026-05-03 21:35 21.29109 -72.81023 34011 ft 468 kts 309°
2026-05-03 21:35 21.33326 -72.86269 34011 ft 468 kts 309°
2026-05-03 21:36 21.37569 -72.91551 34007 ft 468 kts 309°
2026-05-03 21:36 21.41822 -72.96850 34006 ft 467 kts 309°
2026-05-03 21:37 21.46054 -73.02129 34012 ft 467 kts 309°
2026-05-03 21:37 21.50298 -73.07428 34014 ft 467 kts 308°
2026-05-03 21:38 21.54502 -73.12682 34014 ft 467 kts 308°
2026-05-03 21:38 21.58732 -73.17974 34011 ft 467 kts 308°
2026-05-03 21:39 21.62960 -73.23268 34014 ft 467 kts 308°
2026-05-03 21:39 21.67185 -73.28564 34020 ft 467 kts 308°
2026-05-03 21:40 21.71408 -73.33862 34018 ft 466 kts 308°
2026-05-03 21:40 21.75604 -73.39133 34005 ft 466 kts 308°